Location: *
(51.0333°S, 178.4667°E)
Time: 23:37:13
(UTC+00:00)

SPOT 1/Viking Rocket - Pass Details

Date: 15 November 2019
Orbit: 778 x 793 km, 98.5° (Epoch: 06 December)

Event Time Altitude Azimuth Distance (km) Brightness Sun altitude
Rises 11:12:33 0° 169° (SSE) 3,312 8.0 -20.0°
Reaches altitude 10° 11:14:56 10° 173° (S) 2,375 7.1 -20.1°
Maximum altitude 11:20:01 53° 248° (WSW) 969 4.1 -20.2°
Enters shadow 11:22:56 24° 314° (NW) 1,579 4.8 -20.2°
